Regional Weather Roundup
Issued by NWS Charleston, SC

Current Version | Previous Version | Graphics & Text | Print | Product List | Glossary On
Versions: 1 2 3 4 5 6 7 8 9 10 11 12 13 14 15 16 17 18 19 20 21 22 23 24 25 26 27 28 29 30 31 32 33 34 35 36 37 38 39 40 41 42 43 44 45 46 47 48 49 50
000 ASUS42 KCHS 040328 RWRCHS REGIONAL WEATHER ROUNDUP NATIONAL WEATHER SERVICE CHARLESTON SC 1100 PM EDT TUE MAY 03 2016 NOTE: "FAIR" INDICATES FEW OR NO CLOUDS BELOW 12,000 FEET WITH NO SIGNIFICANT WEATHER AND/OR OBSTRUCTIONS TO VISIBILITY. NOT ALL STATIONS ARE QUALITY CONTROLLED. USE DATA WITH CAUTION... ESPECIALLY DEWPOINT OBSERVATIONS. SCZ027-030-031-034>040-042>050-040400- ...SOUTHEAST SOUTH CAROLINA... CITY SKY/WX TMP DP RH WIND PRES REMARKS N CHARLESTON CLOUDY 66 63 90 SE5 29.83F WATERFRONT PRK N/A 66 64 93 SW10G20 29.86R MOUNT PLEASANT MOCLDY 66 64 94 CALM 29.83F JOHNS ISLAND MOCLDY 68 66 94 CALM 29.82F PINOPOLIS N/A 77 70 78 SW9 29.73R MONCKS CORNER MOCLDY 66 59 77 S10 29.83S SUMMERVILLE FAIR 68 64 88 SE3 29.83F BEAUFORT MCAS CLOUDY 68 66 93 SW3 29.83F BEAUFORT ARPT MOCLDY 68 66 94 S3 29.83R HILTON HEAD IS CLOUDY 70 70 100 CALM 29.85R WALTERBORO MOCLDY 68 68 100 SW5 29.82F ALLENDALE MOCLDY 70 66 88 CALM 29.80F ...SOUTHERN MIDLANDS AND PEE DEE... CITY SKY/WX TMP DP RH WIND PRES REMARKS GEORGETOWN MOCLDY 70 63 78 SW32G41 29.84R THUNDER KINGSTREE FAIR 72 64 78 S5 29.79R ORANGEBURG PTCLDY 71 66 84 S7 29.80R BARNWELL FAIR 72 72 100 SW3 29.81S AIKEN MOCLDY 68 64 88 SW6 29.83S MANNING FAIR 72 64 78 S5G16 29.79S COLUMBIA PTCLDY 73 66 78 W8 29.77S SUMTER PTCLDY 72 65 79 SW9 29.75S FLORENCE CLEAR 74 65 73 SW7 29.77R MYRTLE BEACH MOCLDY 75 64 69 SW8 29.79R N MYRTLE BEACH CLOUDY 73 70 90 SW13 29.76R $$ GAZ063-065-086>088-099>101-113>116-118-119-134>141-150-040400- ...SOUTHEAST GEORGIA... CITY SKY/WX TMP DP RH WIND PRES REMARKS SAVANNAH ARPT CLOUDY 67 64 90 CALM 29.85R HUNTER AAF CLOUDY 69 69 100 W2 29.82R FORT STEWART CLOUDY 70 67 90 CALM 29.81S STATESBORO CLOUDY 71 70 97 NW7 29.80F SYLVANIA CLOUDY 69 67 96 NW5 29.81F CLAXTON FAIR 67 67 100 SE5 29.83 ...CSRA...CENTRAL AND FAR SOUTHEAST GEORGIA... CITY SKY/WX TMP DP RH WIND PRES REMARKS THOMSON PTCLDY 68 68 100 CALM 29.86S AUGUSTA-BUSH CLEAR 70 66 87 SW8 29.79S AUGUSTA-DANIEL PTCLDY 70 66 87 SW3 29.81S SWAINSBORO CLOUDY 68 64 88 CALM 29.84S VIDALIA PTCLDY 68 64 88 W5 29.82F EASTMAN MOCLDY 67 67 100 CALM 29.86F HAZLEHURST FAIR 68 68 100 CALM 29.83S ALMA CLEAR 65 65 100 CALM 29.84F WAYCROSS CLEAR 68 66 94 CALM 29.84S JESUP FAIR 72 70 94 CALM 29.83F BAXLEY FAIR 70 68 94 W3 29.84R BRUNSWICK CLEAR 79 68 69 CALM 29.84S SAINT SIMONS CLEAR 76 66 71 W8 29.83F $$ SCZ027-028-034-036>038-045-046-048>050-GAZ119-141-040400- ...LAKE AND SUPPLEMENTAL COASTAL OBSERVATIONS... STATION/POSITION TIME TEMP WIND PRES WAVE SWELL AIR SEA DIR/SP/G HT/PER HT/PER/DIR (UTC) (F) (DEG/KT/KT) (MB) (FT/S) (FT/S/D) WINYAH BAY 0200 74 220/ 7 1008.0R LAKE MURRAY 0300 72 250/ 7/ 8 1007.8S ACE BASIN NERRS 0200 65 180/ 3 1012.0R FORT PULASKI 0300 70 75 320/ 6/ 7 1010.8R SAPELO ISLAND 0300 75 260/ 7 1010.0S $$ ANZ835-935-AMZ111-154-330-350-352-354-370-450-454-472-040400- ...C-MAN AND BUOY OBSERVATIONS... STATION/POSITION TIME TEMP WIND PRES WAVE SWELL AIR SEA DIR/SP/G HT/PER HT/PER/DIR (UTC) (F) (DEG/KT/KT) (MB) (FT/S) (FT/S/D) BUOY 41004 0250 76 75 270/ 10/ 12 1009.6R 4/ 5 3/ 7 BUOY 41008 NOT AVBL FOLLY BEACH CMAN 0300 70 90/ 3/ 4 1010.4S CAPERS NEARSHORE 0308 68 71 240/ 19/ 31 1010.5R FRIPP NEARSHORE 0308 71 76 90/ 12/ 17 1009.9R STATION/POSITION TIME TEMP WIND PRES WAVE SWELL AIR SEA DIR/SP/G HT/PER HT/PER/DIR (UTC) (F) (DEG/KT/KT) (MB) (FT/S) (FT/S/D) 5E ST. MARYS GA 0221 73 N/A 2/ 7 FRYING PAN BUOY 0300 74 73 210/ 12/ 16 1008.5R BUOY 41025 0250 73 72 230/ 16/ 19 1007.5F 4/ 4 2/160/ 7 CAPE LOOKOUT NC 0300 71 210/ 7/ 9 1007.7F BUOY 41002 0250 74 74 170/ 14/ 17 1011.9R 5/ 6 2/110/ 9 BUOY 41010 0220 78 79 170/ 12/ 14 1012.7F ST AUGUSTINE FL 0300 77 72 240/ 4/ 6 1011.9F $$

USA.gov is the U.S. government's official web portal to all federal, state and local government web resources and services.